SCP
0 0 0 0 0 0 0 0 0 0 0 0 0 0 1 1 1 1 1 1 2 2 2 2 2 2 1 1 1 1 1 1 1 1 1 1 1 1 1 1 1 1 1 1 0 0 0 0 0
0 0 0 0 0 0 0 0 0 0 0 0 0 1 1 1 1 1 1 1 2 3 2 2 2 2 1 1 1 1 1 1 1 1 1 1 1 1 1 1 1 1 1 0 0 0 0 0 0
0 0 0 0 0 0 0 0 0 0 0 0 0 1 1 2 2 2 1 2 3 3 3 3 2 2 2 1 1 1 1 1 1 1 1 1 1 1 1 1 0 0 0 0 0 0 0 0 0
0 0 0 0 0 0 0 0 0 0 0 0 1 1 1 2 2 2 2 3 3 3 3 3 3 2 2 1 1 1 1 1 1 1 1 1 1 0 0 0 0 0 0 0 0 0 0 0 0
0 0 0 0 0 0 0 0 0 0 0 0 1 2 2 2 2 3 3 3 4 4 3 3 2 2 2 2 2 1 1 1 1 1 1 1 1 0 0 0 0 0 0 0 0 0 0 0 0
0 0 0 0 0 0 0 0 0 0 0 1 2 2 3 3 3 3 3 4 4 4 4 3 2 2 2 2 1 1 1 1 1 1 1 1 1 1 1 0 0 0 0 0 0 0 0 0 0
0 0 0 0 0 0 0 0 0 0 0 1 3 3 3 3 4 3 3 3 3 4 4 3 2 2 2 2 1 1 1 1 1 1 1 1 1 1 1 0 0 0 0 0 0 0 0 0 0
0 0 0 0 0 0 0 0 0 0 0 2 3 4 4 4 4 4 3 3 3 3 3 3 2 2 2 1 1 1 1 1 1 1 1 1 1 1 1 0 0 0 0 0 0 0 0 0 0
0 0 0 0 0 0 0 0 0 0 0 2 3 4 4 4 4 4 4 3 3 3 3 3 2 2 2 1 1 1 1 1 1 1 1 1 1 1 0 0 0 1 0 0 0 0 0 0 0
0 0 0 0 0 0 0 0 0 0 1 2 3 4 5 6 5 5 4 3 3 3 3 2 2 2 2 2 1 1 1 1 1 1 1 1 1 0 0 0 1 1 1 1 0 0 0 0 0
0 0 0 0 0 0 0 0 0 0 1 2 3 5 7 7 6 4 4 4 3 3 3 2 2 2 2 2 1 1 1 1 1 1 1 1 0 0 0 0 0 1 1 1 0 0 0 0 0
0 0 0 0 0 0 0 0 0 1 1 2 3 5 8 7 5 4 4 4 3 3 3 2 2 2 2 2 1 1 1 1 1 1 1 0 0 0 0 0 0 1 1 1 0 0 0 0 0
0 0 0 0 0 0 0 0 1 1 2 2 4 5 6 6 4 4 4 5 4 4 3 3 2 2 2 2 1 1 1 1 1 1 0 0 0 0 0 0 1 1 1 1 0 0 0 0 0
0 0 0 0 0 0 1 1 1 1 2 3 4 5 5 5 5 5 5 5 5 4 4 3 3 2 2 2 1 1 1 1 1 1 1 1 1 1 1 1 1 1 1 1 1 0 0 0 0
0 0 0 0 0 1 1 2 2 2 2 4 4 5 5 5 6 6 6 5 5 5 4 4 3 3 2 2 2 1 1 1 1 1 1 1 1 1 1 1 1 1 1 1 1 1 1 1 1
0 0 0 0 0 1 2 2 2 2 3 4 5 6 5 5 6 7 6 5 5 5 4 4 4 3 3 2 2 2 1 1 1 1 1 1 1 1 1 1 1 1 1 1 1 1 1 1 1
0 0 0 0 0 1 2 2 2 3 4 5 6 6 6 5 5 6 6 6 6 5 5 5 5 4 4 3 3 2 2 1 1 1 1 1 1 1 1 1 1 1 1 1 1 1 1 1 0
0 0 0 0 0 1 2 2 2 3 4 5 6 6 6 5 5 5 6 7 7 6 6 7 7 6 5 4 3 3 2 2 2 2 2 2 2 2 2 2 2 2 1 1 1 1 1 0 0
0 0 0 0 1 1 2 2 2 2 4 6 7 7 7 6 5 5 6 7 7 6 7 8 7 7 6 5 4 3 3 3 3 3 3 3 3 3 3 3 2 2 1 1 1 1 1 1 1
0 0 0 1 1 2 2 3 2 3 4 7 8 8 7 6 5 4 6 8 7 6 6 7 6 6 5 5 4 3 3 3 3 3 2 2 3 3 3 3 2 1 1 1 1 1 1 1 1
0 0 0 1 1 2 2 2 2 3 5 6 7 7 6 5 5 5 7 9 8 6 6 6 6 5 4 3 3 3 3 2 2 2 1 1 1 2 2 2 1 1 1 0 0 1 1 1 1
0 0 0 1 1 1 1 1 2 2 3 4 4 5 5 4 4 4 7 9 8 7 6 6 6 5 4 3 3 3 2 2 1 1 1 1 1 1 1 1 1 0 0 0 0 0 0 0 1
0 0 0 0 0 0 0 1 1 2 2 3 3 4 4 3 2 2 4 6 7 8 7 6 5 5 4 3 3 3 2 1 1 1 1 1 1 1 0 0 0 0 0 0 0 0 0 0 0
0 0 0 0 0 0 0 1 1 1 2 2 2 3 2 2 1 1 1 3 6 8 8 6 5 4 3 3 3 2 1 1 1 1 0 0 0 0 0 0 0 0 0 0 0 0 0 0 0
0 0 0 0 0 0 0 0 1 1 1 1 2 2 1 1 0 0 0 1 4 6 6 5 4 3 2 2 2 1 0 0 0 0 0 0 0 0 0 0 0 0 0 0 0 0 0 0 0
0 0 0 0 0 0 0 1 1 1 1 1 1 1 0 0 0 0 0 0 1 2 2 2 1 1 0 0 0 0 0 0 0 0 0 0 0 0 0 0 0 0 0 0 0 0 0 0 0
0 0 0 0 0 0 0 1 1 1 1 1 0 0 0 0 0 0 0 0 0 0 0 0 0 0 0 0 0 0 0 0 0 0 0 0 0 0 0 0 0 0 0 0 0 0 0 0 0
0 0 0 0 0 0 0 0 1 1 1 0 0 0 0 0 0 0 0 0 0 0 0 0 0 0 0 0 0 0 0 0 0 0 0 0 0 0 0 0 0 0 0 0 0 0 0 0 0
0 0 0 0 0 0 0 0 0 1 0 0 0 0 0 0 0 0 0 0 0 0 0 0 0 0 0 0 0 0 0 0 0 0 0 0 0 0 0 0 0 0 0 0 0 0 0 0 0
0 0 0 0 0 0 0 0 0 0 0 0 0 0 0 0 0 0 0 0 0 0 0 0 0 0 0 0 0 0 0 0 0 0 0 0 0 0 0 0 0 0 0 0 0 0 0 0 0
Wind_Speed
10 7 1 3 5 3 3 4 2 3 3 2 1 1 2 2 4 4 5 16 17 18 15 18 19 19 19 19 19 18 18 18 17 17 17 16 16 15 14 14 13 13 13 13 13 12 12 12 12
5 4 3 4 4 1 5 4 3 4 4 2 3 2 3 3 1 5 6 16 20 19 15 16 20 20 20 19 19 19 19 18 18 17 17 16 15 14 13 13 13 12 12 12 12 11 11 10 10
5 1 2 3 3 6 6 4 4 3 4 3 3 4 4 4 2 5 9 18 18 16 14 16 22 20 20 20 20 19 19 18 18 17 16 16 15 14 13 13 12 12 11 11 11 10 9 9 8
3 4 3 2 8 7 6 5 4 3 1 2 5 3 6 7 3 10 18 19 18 15 14 17 21 20 20 20 20 19 19 18 18 17 16 15 14 13 12 12 12 11 11 10 10 9 8 7 6
4 3 1 3 8 7 6 7 5 4 3 2 5 4 4 8 9 19 19 18 17 14 12 16 20 20 20 20 19 19 19 18 17 16 16 15 13 12 12 12 11 11 10 9 9 7 6 5 4
4 4 2 5 7 6 6 6 4 3 3 3 5 4 3 2 12 17 16 14 14 15 13 13 19 21 20 19 19 18 18 17 16 16 15 14 13 12 12 11 10 10 9 9 8 6 5 4 2
4 3 4 5 5 8 9 4 5 4 4 5 8 4 2 5 9 13 15 14 12 13 13 11 13 15 18 18 18 18 17 17 16 16 15 14 14 13 12 11 10 10 9 8 7 7 5 4 3
5 3 3 3 4 8 5 2 4 5 5 4 9 8 6 8 10 12 14 13 12 11 12 11 11 10 10 12 18 19 18 17 17 16 16 15 14 13 13 11 10 10 9 9 8 7 6 5 5
3 2 4 5 5 7 5 4 5 3 2 3 5 7 8 9 12 14 14 12 12 12 10 10 10 9 9 9 13 15 17 16 16 14 16 13 7 7 8 10 11 11 10 9 9 8 7 7 6
5 4 9 8 7 7 8 6 5 2 1 1 1 3 9 12 12 14 15 14 13 13 11 9 10 10 9 9 8 6 7 8 7 6 8 5 5 5 7 9 12 12 11 10 10 9 8 6 3
5 8 9 10 12 9 8 6 3 2 3 5 8 10 13 13 12 12 13 13 13 13 12 11 10 10 9 6 6 4 4 4 5 6 7 5 4 3 4 3 5 6 7 5 5 5 3 3 3
4 9 9 10 12 9 8 5 2 3 5 6 10 13 12 12 13 13 13 12 11 11 11 11 11 9 8 7 6 5 5 4 4 5 6 5 3 3 3 3 3 3 2 3 3 2 3 3 4
5 9 10 12 12 11 7 5 4 4 3 6 10 11 11 11 9 8 10 12 11 10 10 11 11 11 9 8 6 7 5 6 5 5 6 6 4 4 4 3 3 3 3 3 3 3 3 3 3
7 7 8 8 9 7 6 6 1 3 3 7 9 8 7 6 6 6 7 10 9 8 9 10 10 9 9 8 6 6 6 5 5 5 6 7 5 4 5 4 4 4 3 3 3 3 2 2 1
4 6 9 7 5 5 1 5 3 5 5 8 9 8 8 6 7 7 8 9 9 7 8 8 9 9 9 8 7 6 5 5 5 4 5 6 5 5 5 4 3 3 3 3 2 1 1 1 0
7 5 6 10 5 5 2 6 7 3 6 8 8 9 9 7 7 5 7 8 7 6 6 7 8 9 8 7 5 4 5 5 4 3 3 4 4 4 4 3 2 2 1 1 1 1 1 0 1
4 4 7 11 7 4 2 2 4 2 8 9 8 8 9 9 9 6 5 6 5 5 3 4 4 6 6 6 5 4 4 4 3 2 2 1 2 3 4 3 2 2 2 2 1 1 1 1 1
6 6 7 9 8 2 2 3 2 5 10 10 9 9 11 11 9 9 9 8 7 6 4 2 4 4 4 4 5 4 5 5 5 4 3 3 3 4 4 3 3 3 3 2 2 2 2 1 1
8 9 12 14 10 2 4 4 5 6 9 10 10 11 12 10 9 11 11 9 8 8 7 4 4 3 3 3 4 4 4 5 6 6 7 7 7 7 6 4 4 4 3 3 2 2 3 2 2
11 12 14 12 6 3 10 10 8 9 9 11 12 11 10 10 10 11 12 12 12 10 8 7 6 4 3 2 2 4 6 6 6 7 9 9 9 8 7 7 5 5 4 5 5 3 1 2 2
10 9 9 6 3 5 9 7 8 10 12 12 12 11 11 11 11 11 12 13 14 13 10 7 8 8 7 5 4 5 5 5 6 7 7 9 10 10 9 9 7 7 6 5 5 4 3 1 2
8 7 4 3 1 2 3 4 3 8 10 11 10 10 11 11 11 11 12 13 13 12 10 10 9 10 9 6 6 8 6 6 7 6 7 9 11 11 10 9 9 8 6 7 7 7 4 3 2
7 6 3 2 1 1 2 5 4 6 8 9 10 11 11 11 12 13 13 12 12 12 11 10 11 11 10 9 8 10 10 9 8 8 11 10 10 10 10 9 9 8 7 8 9 8 8 6 5
5 3 5 4 4 1 2 4 4 4 8 10 10 11 11 12 12 13 13 12 12 12 11 10 13 13 12 12 12 12 13 12 11 10 9 8 7 8 9 10 9 8 7 8 8 8 9 7 7
3 5 4 5 4 2 1 5 2 3 10 13 12 11 11 12 12 12 13 12 12 13 12 12 14 14 13 13 13 12 13 12 12 10 9 8 7 7 8 8 7 7 7 7 7 8 8 8 8
2 7 6 3 2 2 3 5 5 10 12 13 12 11 12 12 12 13 12 12 12 13 12 12 13 13 12 13 12 12 12 10 9 9 8 8 7 6 7 7 7 7 7 8 7 6 6 6 7
1 2 7 6 1 2 2 5 6 10 11 11 12 12 12 11 12 12 12 12 11 12 12 11 12 13 12 12 13 12 12 11 10 9 8 6 6 6 7 7 7 7 7 7 6 6 6 6 6
4 3 4 5 3 1 1 4 6 12 12 11 11 12 11 11 11 11 11 11 11 11 11 11 12 12 11 11 10 11 10 10 9 8 9 8 7 6 6 7 7 7 7 7 6 5 5 6 4
2 2 3 4 4 4 2 2 1 12 14 13 13 12 12 11 10 10 9 9 10 10 10 10 10 11 10 10 9 9 8 8 8 8 7 6 6 6 6 6 6 7 7 6 6 5 5 5 5
2 2 4 4 2 3 3 1 2 11 11 12 14 13 12 11 10 10 10 10 9 9 9 8 8 9 8 8 8 8 7 7 7 7 6 6 6 5 5 6 6 6 6 6 6 6 6 5 5
Wind_Direction
316 309 323 70 52 45 256 246 207 211 198 204 145 197 246 222 196 196 171 156 149 150 156 155 151 146 141 136 131 128 124 120 117 114 111 109 107 107 107 107 107 108 108 107 105 103 102 101 101
310 313 34 66 97 270 270 241 203 208 194 162 39 358 338 291 233 122 134 153 148 149 152 155 153 148 144 139 135 133 131 128 124 122 119 117 115 114 113 113 113 112 111 110 108 105 102 101 99
306 276 85 92 170 196 237 244 228 235 183 147 76 27 312 253 185 140 145 143 142 146 151 156 154 150 146 143 140 139 137 134 131 129 126 124 123 121 120 120 119 117 116 115 113 110 106 103 97
9 30 53 129 233 230 226 258 240 230 246 107 114 95 302 271 216 140 138 142 142 146 151 155 154 152 149 147 145 144 142 140 138 135 133 131 130 129 128 128 126 125 124 122 120 118 115 108 99
60 80 63 253 247 253 257 260 237 220 197 127 113 117 282 301 125 133 140 144 144 144 149 155 154 153 152 151 149 148 146 144 142 141 139 138 137 136 136 135 135 134 133 132 132 130 127 121 112
48 78 152 242 259 264 263 242 225 232 209 140 99 116 261 258 136 141 140 141 143 145 147 153 155 156 155 154 152 150 148 148 147 145 144 143 143 143 143 143 144 144 144 144 145 149 150 149 150
127 125 207 233 262 272 265 238 209 222 234 179 138 133 207 197 157 144 138 135 138 143 146 150 156 158 159 156 154 153 152 151 151 150 149 149 150 151 152 153 154 156 158 161 166 173 180 190 209
150 120 253 250 259 270 268 242 234 216 229 169 134 152 200 197 159 141 134 134 138 142 148 152 154 155 156 157 159 157 155 155 155 155 155 156 158 160 162 163 167 170 174 179 185 194 202 214 232
118 98 245 246 248 266 286 290 281 254 177 183 161 177 196 163 154 140 136 136 142 148 152 154 154 153 153 156 162 159 159 160 159 161 162 160 161 164 169 177 181 183 188 194 201 210 219 229 244
129 180 234 230 235 260 281 276 268 262 182 174 160 172 155 154 153 147 148 149 152 156 161 159 157 155 155 161 153 155 158 161 160 162 163 160 165 177 182 192 193 195 199 206 214 222 230 240 251
183 209 239 252 254 254 269 277 260 181 211 190 178 169 161 159 158 151 151 155 156 158 163 164 162 159 161 151 152 157 152 158 163 167 166 165 169 186 192 189 204 204 209 216 228 233 234 241 246
232 250 242 251 258 257 254 255 249 219 221 182 167 161 162 168 168 160 153 152 151 159 164 165 165 164 165 154 162 163 161 168 174 179 175 171 177 191 191 197 198 199 207 211 222 226 235 249 252
259 259 260 254 258 253 255 249 230 236 220 144 146 149 160 169 167 155 151 147 152 161 166 168 173 171 164 162 171 171 171 177 180 178 183 181 182 186 186 194 195 201 202 205 213 219 223 239 253
256 270 278 271 264 258 251 269 241 239 149 122 127 130 138 145 136 116 127 138 148 162 174 179 175 177 166 169 178 174 173 174 177 182 186 184 181 177 181 188 192 200 200 201 202 207 209 222 231
301 315 315 293 271 262 281 317 272 230 140 124 126 120 114 115 104 113 127 132 139 164 174 185 183 174 170 172 180 172 170 165 173 184 184 181 175 172 173 176 181 197 193 193 191 193 177 181 144
351 341 308 293 287 279 144 266 290 280 125 125 121 115 107 94 92 106 125 128 138 151 165 171 186 169 164 165 168 161 158 155 167 173 169 178 175 158 144 144 152 162 143 130 135 137 122 64 59
346 296 280 293 284 273 157 244 314 93 108 115 113 107 101 86 72 64 80 105 116 122 133 141 143 151 149 153 145 138 125 123 115 94 90 128 126 123 118 114 103 100 87 71 80 75 94 51 9
257 271 278 275 280 256 173 194 15 61 102 111 105 102 92 85 77 72 64 61 66 76 78 101 118 130 143 146 128 114 100 90 74 67 55 61 73 81 89 84 72 72 72 54 54 65 55 55 8
244 266 272 275 276 255 159 132 71 71 90 97 97 98 96 89 80 75 69 60 56 62 64 63 65 87 129 142 135 124 107 87 73 64 56 58 61 62 66 65 58 59 64 52 48 66 56 32 4
246 257 268 285 295 115 108 92 72 69 81 90 96 91 87 81 69 63 62 54 50 52 58 55 60 46 58 90 107 100 100 89 81 64 52 48 56 58 65 62 60 52 53 43 32 36 54 26 18
256 243 250 256 12 90 104 74 83 79 80 77 77 79 77 78 73 62 60 57 51 42 39 50 54 47 41 50 83 90 88 89 77 68 58 46 51 56 58 58 60 54 48 46 37 30 48 56 27
269 251 242 264 347 263 113 125 121 110 94 87 84 80 77 72 69 64 63 62 58 50 41 43 50 52 44 50 90 101 97 90 79 79 74 58 51 52 53 57 61 59 56 51 43 40 37 51 40
259 260 226 232 240 351 25 118 162 136 117 108 97 89 81 76 72 67 61 61 60 57 48 44 52 53 48 51 71 92 93 91 88 79 73 66 55 50 52 57 61 62 59 57 53 48 47 49 51
278 345 6 38 74 340 251 128 178 180 146 128 108 96 88 82 75 70 65 62 60 59 56 49 56 54 52 57 64 80 93 97 93 84 79 71 64 57 52 58 61 61 62 62 60 57 53 53 55
35 74 28 4 17 272 332 97 76 94 120 121 113 102 90 84 77 71 64 60 62 60 59 56 60 58 54 60 65 72 82 86 87 88 86 83 76 68 56 57 58 57 57 58 58 60 56 51 54
279 137 152 186 220 291 30 80 78 90 98 101 102 98 89 83 81 76 70 64 62 61 60 61 64 63 60 64 68 70 74 79 81 82 85 82 79 72 64 60 58 55 55 56 53 54 51 50 51
259 206 175 143 119 76 89 109 112 111 110 111 107 99 92 87 83 81 76 73 70 66 63 64 69 68 66 68 72 72 75 80 83 81 79 77 77 77 68 64 61 55 53 53 54 53 47 48 47
172 179 88 106 134 151 159 161 175 156 140 129 118 110 104 96 89 85 83 82 80 77 74 70 71 73 71 71 75 80 75 76 78 78 77 75 71 70 70 64 60 56 51 49 51 50 44 48 37
17 49 100 109 132 145 174 255 197 163 152 140 128 121 116 109 103 98 93 88 85 81 78 76 75 77 76 75 76 78 75 74 75 76 74 72 69 68 69 66 62 56 48 42 45 41 39 39 28
138 160 138 138 161 138 141 299 56 134 134 131 128 125 121 116 111 106 101 95 92 89 86 84 83 83 81 80 79 77 75 73 73 73 70 71 70 65 69 69 64 60 51 42 41 37 34 35 30